User: anonymous   Login
Location: Starry Hill Observatory
(46.8582°N, 122.3590°W)
Time: 15:59:08
(UTC-07:00)
Language:

Cosmos 1300 Rocket - Orbit

View from above orbital plane
View from above orbital plane
View from above satellite
View from above satellite

Ground track
Ground track

The orbit data is extracted from the following two-line orbital elements,

1 12786U 81082B   16182.79155429  .00000080  00000-0  66506-5 0  9999
2 12786  82.4899 298.8701 0016940 339.7021  20.3519 14.84624611882674
Epoch (UTC): 30 June 2016 18:59:50
Eccentricity: 0.0016940
inclination: 82.4899°
perigee height: 603 km
apogee height: 626 km
right ascension of ascending node: 298.8701°
argument of perigee: 339.7021°
revolutions per day: 14.84624611
mean anomaly at epoch: 20.3519°
orbit number at epoch: 88267

The dashed part of the orbit path shows where the satellite is in the earth's shadow,  

DLR